Weather History for Lawrence, MA

Change the Weather History Date:

Friday, March 15, 2013

  Actual Average Record
Temperature  
Mean Temperature 30 °F -  
Max Temperature 42 °F 43 °F 70 °F (1945)
Min Temperature 19 °F 27 °F 8 °F (1932)
Degree Days  
Heating Degree Days 35    
Moisture  
Dew Point 11 °F    
Average Humidity 47    
Maximum Humidity 75    
Minimum Humidity 25    
Precipitation  
Precipitation 0.00 in - - ()
Sea Level Pressure  
Sea Level Pressure 29.76 in    
Wind  
Wind Speed 12 mph (West)    
Max Wind Speed 16 mph    
Max Gust Speed 25 mph    
Visibility 10 miles    
Events Snow    
Averages and records for this station are not official NWS values.
T = Trace of Precipitation, MM = Missing Value Source: NWS Daily Summary

Daily Weather History Graph

Daily Weather History Graph

Search for Another Location

Airport:

Trip Planner

Search our weather history database for the weather conditions in past years. The results will help you decide how hot, cold, wet, or windy it might be!

Date:

Astronomy

Mar. 15, 2013 Rise Set
Actual Time 6:56 AM EDT 6:51 PM EDT
Civil Twilight 6:28 AM EDT 7:19 PM EDT
Nautical Twilight 5:55 AM EDT 7:52 PM EDT
Astronomical Twilight 5:21 AM EDT 8:25 PM EDT
Moon 8:38 AM EDT (3/15) 11:08 PM EDT (3/15)
Length of Visible Light 12h 51m
Length of Day
11h 55m
Waxing Crescent, 15% of the Moon is Illuminated
Mar 15
Waxing Crescent
Mar 19
First Quarter
Mar 27
Full
Apr 3
Last Quarter
Apr 10
New

Hourly Weather History & Observations

Time (EDT) Temp. Windchill Dew Point Humidity Pressure Visibility Wind Dir Wind Speed Gust Speed Precip Events Conditions
12:54 AM 21.9 °F 9.2 °F 6.1 °F 51% 29.84 in 10.0 mi NNW 13.8 mph 19.6 mph N/A   Scattered Clouds
1:54 AM 21.9 °F 8.7 °F 6.1 °F 51% 29.86 in 10.0 mi NW 15.0 mph 24.2 mph N/A   Mostly Cloudy
2:54 AM 21.9 °F 10.4 °F 5.0 °F 48% 29.86 in 10.0 mi NW 11.5 mph 24.2 mph N/A   Overcast
3:54 AM 21.0 °F 9.3 °F 5.0 °F 50% 29.85 in 10.0 mi NNW 11.5 mph 21.9 mph N/A   Scattered Clouds
4:54 AM 19.9 °F 6.7 °F 3.0 °F 48% 29.85 in 10.0 mi NW 13.8 mph 23.0 mph N/A   Clear
5:54 AM 19.9 °F 7.3 °F 3.0 °F 48% 29.86 in 10.0 mi WNW 12.7 mph 24.2 mph N/A   Clear
6:54 AM 19.9 °F 7.9 °F 3.0 °F 48% 29.87 in 10.0 mi WNW 11.5 mph - N/A   Clear
7:54 AM 19.9 °F 10.1 °F 3.9 °F 50% 29.87 in 10.0 mi NW 8.1 mph - N/A   Clear
8:54 AM 23.0 °F 11.1 °F 5.0 °F 46% 29.87 in 10.0 mi WNW 12.7 mph 19.6 mph N/A   Clear
9:54 AM 24.1 °F 14.4 °F 5.0 °F 44% 29.87 in 10.0 mi West 9.2 mph - N/A   Partly Cloudy
10:54 AM 28.0 °F 18.6 °F 7.0 °F 41% 29.84 in 10.0 mi West 10.4 mph - N/A   Scattered Clouds
11:54 AM 30.0 °F 21.7 °F 6.1 °F 36% 29.81 in 10.0 mi West 9.2 mph - N/A   Overcast
12:54 PM 33.1 °F 25.5 °F 6.1 °F 32% 29.78 in 10.0 mi West 9.2 mph - N/A   Mostly Cloudy
1:54 PM 37.0 °F 29.3 °F 5.0 °F 26% 29.74 in 10.0 mi West 11.5 mph 19.6 mph N/A   Scattered Clouds
2:54 PM 39.9 °F 33.9 °F 6.1 °F 25% 29.69 in 10.0 mi WSW 9.2 mph - N/A   Scattered Clouds
3:54 PM 41.0 °F 34.3 °F 9.0 °F 27% 29.67 in 10.0 mi WSW 11.5 mph 20.7 mph N/A   Mostly Cloudy
4:54 PM 39.9 °F 31.4 °F 15.1 °F 36% 29.65 in 10.0 mi WSW 16.1 mph 20.7 mph N/A   Overcast
5:54 PM 39.9 °F 31.4 °F 15.1 °F 36% 29.64 in 10.0 mi WSW 16.1 mph 25.3 mph N/A   Overcast
6:54 PM 37.9 °F 31.5 °F 21.9 °F 53% 29.65 in 10.0 mi WSW 9.2 mph - N/A   Overcast
7:54 PM 37.0 °F 32.4 °F 24.1 °F 59% 29.66 in 10.0 mi West 5.8 mph 19.6 mph 0.00 in   Overcast
8:54 PM 37.0 °F 31.6 °F 25.0 °F 62% 29.66 in 8.0 mi WSW 6.9 mph - 0.00 in Snow Light Snow
9:54 PM 36.0 °F 29.0 °F 25.0 °F 64% 29.65 in 10.0 mi WSW 9.2 mph - 0.00 in   Mostly Cloudy
10:54 PM 35.1 °F 27.4 °F 26.1 °F 70% 29.65 in 10.0 mi WSW 10.4 mph - N/A   Clear
11:54 PM 34.0 °F 26.0 °F 27.0 °F 75% 29.67 in 10.0 mi WSW 10.4 mph - N/A   Scattered Clouds